Satellite: NOAA-16 Catalog number: 26536 Epoch time: 08154.40236887 Element set: 958 Inclination: 099.1551 deg RA of node: 143.2547 deg Eccentricity: 0.0009510 Arg of perigee: 267.4061 deg Mean anomaly: 092.6037 deg Mean motion: 14.12481855 rev/day Decay rate: -1.24e-06 rev/day^2 Epoch rev: 39668 Checksum: 320
Satellite: NOAA-15 Catalog number: 25338 Epoch time: 08154.39854478 Element set: 489 Inclination: 098.5527 deg RA of node: 146.6333 deg Eccentricity: 0.0011841 Arg of perigee: 085.2721 deg Mean anomaly: 274.9827 deg Mean motion: 14.24704190 rev/day Decay rate: -4.5e-07 rev/day^2 Epoch rev: 52269 Checksum: 332
Satellite: NOAA-17 Catalog number: 27453 Epoch time: 08154.36685380 Element set: 949 Inclination: 098.5351 deg RA of node: 219.4215 deg Eccentricity: 0.0012469 Arg of perigee: 147.4526 deg Mean anomaly: 212.7453 deg Mean motion: 14.23977851 rev/day Decay rate: 1.15e-06 rev/day^2 Epoch rev: 30869 Checksum: 328
Satellite: NOAA-11 Catalog number: 19531 Epoch time: 08154.31701661 Element set: 185 Inclination: 098.7970 deg RA of node: 243.8478 deg Eccentricity: 0.0012450 Arg of perigee: 109.8381 deg Mean anomaly: 250.4164 deg Mean motion: 14.14870819 rev/day Decay rate: -1.05e-06 rev/day^2 Epoch rev: 1580 Checksum: 292
Satellite: NOAA-12 Catalog number: 21263 Epoch time: 08154.25170973 Element set: 698 Inclination: 098.7657 deg RA of node: 156.2053 deg Eccentricity: 0.0012717 Arg of perigee: 164.3841 deg Mean anomaly: 195.7756 deg Mean motion: 14.25535136 rev/day Decay rate: 2.03e-06 rev/day^2 Epoch rev: 88626 Checksum: 321
Satellite: FENGYUN1 Catalog number: 25730 Epoch time: 08153.98881569 Element set: 0426 Inclination: 098.7229 deg RA of node: 130.2910 deg Eccentricity: 0.0018874 Arg of perigee: 212.3563 deg Mean anomaly: 147.6451 deg Mean motion: 14.07685807 rev/day Decay rate: -6.2e-07 rev/day^2 Epoch rev: 46682 Checksum: 323
Satellite: RESURS Catalog number: 25394 Epoch time: 08153.93344144 Element set: 0941 Inclination: 098.3893 deg RA of node: 198.5873 deg Eccentricity: 0.0000502 Arg of perigee: 248.0949 deg Mean anomaly: 112.0177 deg Mean motion: 14.24160824 rev/day Decay rate: 1.2e-07 rev/day^2 Epoch rev: 51427 Checksum: 293
Satellite: MET-3/5 Catalog number: 21655 Epoch time: 08153.92337045 Element set: 0490 Inclination: 082.5522 deg RA of node: 115.1666 deg Eccentricity: 0.0014990 Arg of perigee: 053.2207 deg Mean anomaly: 307.0289 deg Mean motion: 13.17015761 rev/day Decay rate: 5.1e-07 rev/day^2 Epoch rev: 80757 Checksum: 287
Satellite: SICH-1 Catalog number: 23657 Epoch time: 08153.74940834 Element set: 0401 Inclination: 082.5266 deg RA of node: 110.4571 deg Eccentricity: 0.0023994 Arg of perigee: 166.3319 deg Mean anomaly: 193.8538 deg Mean motion: 14.81582532 rev/day Decay rate: 2.58e-06 rev/day^2 Epoch rev: 68793 Checksum: 323
Satellite: OKEAN-4 Catalog number: 23317 Epoch time: 08153.73664956 Element set: 0603 Inclination: 082.5386 deg RA of node: 329.4870 deg Eccentricity: 0.0022269 Arg of perigee: 173.5772 deg Mean anomaly: 186.5733 deg Mean motion: 14.82614681 rev/day Decay rate: 2.48e-06 rev/day^2 Epoch rev: 73599 Checksum: 341
Satellite: MET-2/21 Catalog number: 22782 Epoch time: 08153.44479805 Element set: 0159 Inclination: 082.5453 deg RA of node: 124.0665 deg Eccentricity: 0.0022059 Arg of perigee: 338.6441 deg Mean anomaly: 021.3793 deg Mean motion: 13.83627914 rev/day Decay rate: 1.9e-07 rev/day^2 Epoch rev: 74495 Checksum: 316
/EX SB KEPS @ AMSAT $ORB08154.M Orbital Elements 08154.MISC
HR AMSAT ORBITAL ELEMENTS FOR MANNED AND MISCELLANEOUS SATELLITES FROM WA5QGD FORT WORTH,TX June 2, 2008 Send Subscribe/unsubscribe to KEPS at http://www.amsat.org/mailman/listinfo/keps BID: ORB08154.M TO ALL RADIO AMATEURS BT
Satellite: CUTE1-7 Catalog number: 32785 Epoch time: 08154.79960534 Element set: 66 Inclination: 097.9934 deg RA of node: 214.7536 deg Eccentricity: 0.0014695 Arg of perigee: 178.3289 deg Mean anomaly: 181.7972 deg Mean motion: 14.81362228 rev/day Decay rate: 1.34e-06 rev/day^2 Epoch rev: 527 Checksum: 342
Satellite: ISS Catalog number: 25544 Epoch time: 08154.65231235 Element set: 590 Inclination: 051.6367 deg RA of node: 091.3257 deg Eccentricity: 0.0005321 Arg of perigee: 293.9459 deg Mean anomaly: 132.2621 deg Mean motion: 15.76649255 rev/day Decay rate: 1.1932e-04 rev/day^2 Epoch rev: 54623 Checksum: 296
Satellite: FALCON Catalog number: 30776 Epoch time: 08154.56171616 Element set: 324 Inclination: 035.4343 deg RA of node: 242.1951 deg Eccentricity: 0.0001625 Arg of perigee: 282.5966 deg Mean anomaly: 077.4568 deg Mean motion: 15.02997778 rev/day Decay rate: 3.73e-06 rev/day^2 Epoch rev: 6794 Checksum: 321
Satellite: HUBBLE Catalog number: 20580 Epoch time: 08153.97789077 Element set: 0158 Inclination: 028.4681 deg RA of node: 062.4278 deg Eccentricity: 0.0003957 Arg of perigee: 220.2846 deg Mean anomaly: 139.7449 deg Mean motion: 15.00382696 rev/day Decay rate: 2.93e-06 rev/day^2 Epoch rev: 79269 Checksum: 339
Satellite: AAUSAT2 Catalog number: 32788 Epoch time: 08153.85032426 Element set: 0066 Inclination: 097.9919 deg RA of node: 213.7968 deg Eccentricity: 0.0015589 Arg of perigee: 181.1396 deg Mean anomaly: 178.9776 deg Mean motion: 14.81520775 rev/day Decay rate: 3.6e-07 rev/day^2 Epoch rev: 00513 Checksum: 339
Satellite: CANX-2 Catalog number: 32797 Epoch time: 08153.78650141 Element set: 0036 Inclination: 097.9926 deg RA of node: 213.7396 deg Eccentricity: 0.0015393 Arg of perigee: 181.9169 deg Mean anomaly: 178.1986 deg Mean motion: 14.81357088 rev/day Decay rate: 6.5e-07 rev/day^2 Epoch rev: 00380 Checksum: 335
Satellite: COMPASS Catalog number: 32787 Epoch time: 08153.78528867 Element set: 55 Inclination: 097.9891 deg RA of node: 213.7220 deg Eccentricity: 0.0015726 Arg of perigee: 183.4643 deg Mean anomaly: 176.6465 deg Mean motion: 14.81412866 rev/day Decay rate: 8.9e-07 rev/day^2 Epoch rev: 512 Checksum: 326
Satellite: CAPE1 Catalog number: 31130 Epoch time: 08153.75573968 Element set: 320 Inclination: 098.0405 deg RA of node: 217.8508 deg Eccentricity: 0.0103304 Arg of perigee: 023.4013 deg Mean anomaly: 337.1828 deg Mean motion: 14.51966014 rev/day Decay rate: 7.5e-07 rev/day^2 Epoch rev: 5948 Checksum: 279
Satellite: OO-38 Catalog number: 26063 Epoch time: 08153.75194334 Element set: 0226 Inclination: 100.1918 deg RA of node: 225.5674 deg Eccentricity: 0.0036487 Arg of perigee: 252.6129 deg Mean anomaly: 107.1055 deg Mean motion: 14.35836472 rev/day Decay rate: -2.9e-07 rev/day^2 Epoch rev: 43735 Checksum: 304
Satellite: MAST Catalog number: 31126 Epoch time: 08153.75153427 Element set: 0343 Inclination: 098.0391 deg RA of node: 218.8006 deg Eccentricity: 0.0095514 Arg of perigee: 020.3980 deg Mean anomaly: 340.0999 deg Mean motion: 14.53425559 rev/day Decay rate: .00000000 rev/day^2 Epoch rev: 05977 Checksum: 282
Satellite: PO-34 Catalog number: 25520 Epoch time: 08153.73840574 Element set: 0016 Inclination: 028.4597 deg RA of node: 282.2075 deg Eccentricity: 0.0005553 Arg of perigee: 120.1553 deg Mean anomaly: 239.9591 deg Mean motion: 15.17196972 rev/day Decay rate: 4.29e-06 rev/day^2 Epoch rev: 53081 Checksum: 307
Satellite: UWE-1 Catalog number: 28892 Epoch time: 08153.72854280 Element set: 0063 Inclination: 098.0994 deg RA of node: 047.7388 deg Eccentricity: 0.0018548 Arg of perigee: 097.0196 deg Mean anomaly: 263.3146 deg Mean motion: 14.59632705 rev/day Decay rate: 1.87e-06 rev/day^2 Epoch rev: 13834 Checksum: 338
Satellite: SEEDS Catalog number: 32791 Epoch time: 08153.72096866 Element set: 0061 Inclination: 097.9937 deg RA of node: 213.6650 deg Eccentricity: 0.0015925 Arg of perigee: 181.5396 deg Mean anomaly: 178.5768 deg Mean motion: 14.81272889 rev/day Decay rate: 3.4e-07 rev/day^2 Epoch rev: 00508 Checksum: 334
Satellite: DO-64 Catalog number: 32789 Epoch time: 08153.71835049 Element set: 0082 Inclination: 097.9919 deg RA of node: 213.6674 deg Eccentricity: 0.0015661 Arg of perigee: 182.7300 deg Mean anomaly: 177.3826 deg Mean motion: 14.81393639 rev/day Decay rate: 2.82e-06 rev/day^2 Epoch rev: 00511 Checksum: 318
Satellite: UARS Catalog number: 21701 Epoch time: 08153.69823114 Element set: 0399 Inclination: 056.9723 deg RA of node: 228.9402 deg Eccentricity: 0.0087462 Arg of perigee: 148.1847 deg Mean anomaly: 212.4537 deg Mean motion: 15.51971266 rev/day Decay rate: 5.094e-05 rev/day^2 Epoch rev: 92009 Checksum: 315
Satellite: NCUBE2 Catalog number: 28897 Epoch time: 08153.66322388 Element set: 565 Inclination: 098.0984 deg RA of node: 047.9582 deg Eccentricity: 0.0018298 Arg of perigee: 097.9207 deg Mean anomaly: 262.4055 deg Mean motion: 14.59843171 rev/day Decay rate: 1.33e-06 rev/day^2 Epoch rev: 13050 Checksum: 334
Satellite: CO-58 Catalog number: 28895 Epoch time: 08153.28559067 Element set: 0036 Inclination: 098.1005 deg RA of node: 047.6581 deg Eccentricity: 0.0019055 Arg of perigee: 099.0996 deg Mean anomaly: 261.2359 deg Mean motion: 14.59672533 rev/day Decay rate: 1.27e-06 rev/day^2 Epoch rev: 13816 Checksum: 341
Satellite: FCAL Catalog number: 29667 Epoch time: 08146.34060426 Element set: 979 Inclination: 051.6107 deg RA of node: 065.3702 deg Eccentricity: 0.0009039 Arg of perigee: 260.8350 deg Mean anomaly: 099.5042 deg Mean motion: 16.53464210 rev/day Decay rate: 1.1864717e-01 rev/day^2 Epoch rev: 8291 Checksum: 307
/EX